Regional Weather Roundup
Issued by NWS Upton, NY

Home | Current Version | Previous Version | Text Only | Print | Product List | Glossary On
Versions: 1 2 3 4 5 6 7 8 9 10 11 12 13 14 15 16 17 18 19 20 21 22 23 24 25 26 27 28 29 30 31 32 33 34 35 36 37 38 39 40 41 42 43 44 45 46 47 48 49 50
000
ASUS41 KOKX 280705
RWROKX

REGIONAL WEATHER ROUNDUP
NATIONAL WEATHER SERVICE NEW YORK NY
300 AM EDT THU AUG 28 2014

NOTE: "FAIR" INDICATES FEW OR NO CLOUDS BELOW 12,000 FEET WITH NO
SIGNIFICANT WEATHER AND/OR OBSTRUCTIONS TO VISIBILITY.

NYZ071-072-176-178-NJZ106-104-280800-
NEW YORK CITY METRO AREA


CITY           SKY/WX    TMP DP  RH WIND       PRES   REMARKS
CENTRAL PARK   MOCLDY    78  67  68 VRB3      29.88S
LAGUARDIA APRT MOCLDY    76  68  76 N8        29.84S
KENNEDY INTL   PTCLDY    76  66  71 N10       29.84F
NEWARK/LIBERTY PTCLDY    77  66  68 N15       29.85F
BRNX BOT. GARD   N/A     73  68  83 NW3       29.87R
TETERBORO      PTCLDY    75  68  78 N5        29.84F
$$

NYZ177-179-078>081-280800-
LONG ISLAND NEW YORK

CITY           SKY/WX    TMP DP  RH WIND       PRES   REMARKS
FARMINGDALE    CLEAR     71  67  87 N8        29.84F
ISLIP          CLEAR     72  67  84 N8        29.82F
SHIRLEY        CLEAR     70  67  90 N7        29.84F
WESTHAMPTON    CLEAR     67  64  90 NW3       29.84F
MONTAUK POINT    N/A     72  67  84 W3        29.83F
$$

NYZ052-065-067-280800-
HUDSON VALLEY

CITY           SKY/WX    TMP DP  RH WIND       PRES   REMARKS
WHITE PLAINS   CLOUDY    72  66  81 N6        29.86S
NEWBURGH       CLEAR     70  64  83 NW7       29.90F
MONTGOMERY     CLEAR     68  55  63 NW7       29.89S
POUGHKEEPSIE   CLEAR     65  61  87 CALM      29.87F
ALBANY         MOCLDY    64  58  80 NW5       29.91F
$$

NJZ001-105-106-008-010-013-015-019>022-104-280800-
NEW JERSEY

CITY           SKY/WX    TMP DP  RH WIND       PRES   REMARKS
NEWARK/LIBERTY PTCLDY    77  66  68 N15       29.85F
TETERBORO      PTCLDY    75  68  78 N5        29.84F
CALDWELL       CLEAR     72  64  76 CALM      29.87S
MORRISTOWN     CLEAR     75  61  60 NW7       29.87F
SOMERVILLE     CLOUDY    76  63  64 N8        29.85F
LINDEN         FAIR      80  69  68 N10G16    29.87S
SUSSEX         CLEAR     71  59  65 NW6       29.91F
ANDOVER          N/A     69  58  67 CALM      29.91F
TRENTON        CLEAR     75  66  73 N13       29.85F
MILLVILLE      PTCLDY    71  67  87 W6        29.85F
ATLANTIC CITY  MOCLDY    71  67  87 MISG      29.84F
WRIGHTSTOWN    CLEAR     72  69  89 N9        29.82F
TOMS RIVER     CLEAR     72  64  78 NW3       29.84S
BELMAR         CLEAR     72  64  78 NW6       29.84S
$$

PAZ047>061-062-071-280800-
EASTERN PENNSYLVANIA

CITY           SKY/WX    TMP DP  RH WIND       PRES   REMARKS
PHILADELPHIA   PTCLDY    78  67  68 N10       29.86S
ALLENTOWN      CLEAR     72  61  68 N8        29.91S
SCRANTON       CLEAR     65  56  72 N7        29.97S
$$

CTZ002-004>006-009-010-012-RIZ004-006-007-MAZ004-011-015-280800-
SOUTHERN NEW ENGLAND
 IN CT

CITY           SKY/WX    TMP DP  RH WIND       PRES   REMARKS
BRADLEY INTL   PTCLDY    66  58  75 NW6       29.84S
HARTFORD       CLEAR     69  56  62 N9        29.84F
DANBURY        CLEAR     66  59  78 N6        29.89F
WTRBRY/OXFORD  CLEAR     64  55  72 N14       29.89F
BRIDGEPORT     PTCLDY    71  66  84 N6        29.85F
MERIDEN        PTCLDY    69  56  62 N9        29.85F
NEW HAVEN      CLEAR     71  64  78 N8        29.84F
CHESTER        FAIR      70  61  73 NW9       29.85F
GROTON         PTCLDY    69  65  86 N6        29.81F
WILLIMANTIC    PTCLDY    68  62  81 W3        29.84F

 IN RI

CITY           SKY/WX    TMP DP  RH WIND       PRES   REMARKS
PROVIDENCE     MOCLDY    71  65  81 W3        29.82F
BLOCK ISLAND   PTCLDY    70  64  83 W8        29.83F
WESTERLY       PTCLDY    69  66  90 CALM      29.82F

 IN MA

CITY           SKY/WX    TMP DP  RH WIND       PRES   REMARKS
BOSTON         PTCLDY    73  67  81 NW10      29.81S
WORCESTER      MOCLDY    67  64  90 N9        29.86F
WESTFIELD      PTCLDY    67  58  72 N7        29.85S
PROVINCETOWN   CLOUDY    68  63  83 SW8       29.79F
NANTUCKET      FOG       68  68 100 SW8       29.82F VSB 1/2
$$

ANZ330-335-338-340-345-350-353-355-280800-
COASTAL MARINE OBSERVATIONS


STATION/POSITION TIME  SKY/WX   TEMP    WIND        PRES    VSBY  WAVE
                                AIR SEA DIR/SP/G                  HT/PER
                 (UTC)          (F)     (DEG/KT/KT) (MB)    (MI)  (FT/S)
NY HARB ENTRANCE NOT AVBL
4S FIRE IS       NOT AVBL
23SW MTP         0700                                 N/A           6/13
HUDSON CANYON    0700            72 74  240/  4/  6 1009.8          7/13
EXECUTION ROCKS  0700            75 74  360/  8/ 10   N/A
WESTERN LI SOUND 0700            74      20/ 10/ 12   N/A           0
CENTRAL LI SOUND 0600            73 74  330/ 10/ 14   N/A           1
EASTERN LI SOUND 0600            71 69  290/  8/ 12   N/A
ROBBINS REEF     0600            76     350/ 11/ 13   N/A
$$


>>>>>>>>>>>>>>>>>>>>>>>>>>>> KEY <<<<<<<<<<<<<<<<<<<<<<<<<<<
>                                                          <
>     SKY/WX - SKY CONDITION/PRESENT WEATHER               <
>     TMP    - TEMPERATURE IN FAHRENHEIT                   <
>     DP     - DEWPOINT IN FAHRENHEIT                      <
>     RH     - RELATIVE HUMIDITY IN PERCENT                <
>     WIND   - DIRECTION AND SPEED IN MPH                  <
>     PRES   - MEAN SEA LEVEL PRESSURE IN INCHES OF HG     <
>     WCI    - WIND CHILL INDEX                            <
>     VSB    - VISIBILITY IN MILES                         <
>     HX     - HEAT INDEX                                  <
>     TC     - TEMPERATURE IN CELSIUS                      <
>     VRB    - VARIABLE WIND DIRECTION                     <
>                                                          <
>>>>>>>>>>>>>>>>>>>>>>>>>>>> KEY <<<<<<<<<<<<<<<<<<<<<<<<<<<




USA.gov is the U.S. government's official web portal to all federal, state and local government web resources and services.